Location: ???????
(38.3360°N, 23.6977°E)
Time: 21:41:31
(UTC+00:00)

H-2A R/B - Pass Details

Date: 17 November 2025
Orbit: 303 x 31047 km, 27.9° (Epoch: 11 December)

Event Time Altitude Azimuth Distance (km) Brightness Sun altitude
Rises 16:18:26 0° 266° (W) 6,255 8.5 -13.3°
Reaches altitude 10° 16:25:27 10° 251° (WSW) 2,990 6.4 -14.6°
Maximum altitude 16:29:08 16° 212° (SSW) 1,563 4.2 -15.3°
Drops below altitude 10° 16:31:07 10° 167° (SSE) 1,489 3.5 -15.7°
Enters shadow 16:31:55 - 153° (SSE) 1,677 3.6 -15.9°
